Regional Weather Roundup
Issued by NWS State College, PA

Home | Current Version | Previous Version | Graphics & Text | Print | Product List | Glossary On
Versions: 1 2 3 4 5 6 7 8 9 10 11 12 13 14 15 16 17 18 19 20 21 22 23 24 25 26 27 28 29 30 31 32 33 34 35 36 37 38 39 40 41 42 43 44 45 46 47 48 49 50
000
ASUS41 KCTP 270803
RWRCTP

REGIONAL WEATHER ROUNDUP
NATIONAL WEATHER SERVICE STATE COLLEGE PA
300 AM EST SAT DEC 27 2014

Note: "fair" indicates few or no clouds below 12,000 feet with no
significant weather and/or obstructions to visibility.

* = STATION THAT DOES NOT REPORT PRECIPITATION /E.G. RAIN...SNOW...ETC/
    THUNDER OR FOG.

PAZ002>004-007>009-013>016-020>023-029>032-270900-
WESTERN PENNSYLVANIA

CITY           SKY/WX    TMP DP  RH WIND       PRES   REMARKS
ERIE           MOCLDY    42  32  67 S7        30.16S
MEADVILLE      MOCLDY    39  31  72 S6        30.16R
FRANKLIN*      MOCLDY    37  28  70 SW6       30.19S
NEW CASTLE       N/A     39  32  76 CALM      30.21R
BEAVER COUNTY  NOT AVBL
BUTLER*        MOCLDY    36  28  75 S3        30.22R
PITTSBURGH INT CLOUDY    36  30  79 SE3       30.20R
PITTSBURGH     PTCLDY    39  27  62 S7        30.20R
INDIANA*       CLEAR     30  28  93 CALM      30.25R
LATROBE        PTCLDY    30  28  93 CALM      30.24R
WASHINGTON CO* NOT AVBL
$$

PAZ004>006-010>012-017>019-024>028-033>037-041-042-045-046-049>053-270900-
CENTRAL PENNSYLVANIA

CITY           SKY/WX    TMP DP  RH WIND       PRES   REMARKS
BRADFORD       CLOUDY    37  29  72 CALM      30.16S
DUBOIS         PTCLDY    36  29  75 W3        30.18S
CLEARFIELD     PTCLDY    29  27  92 N3        30.19S
JOHNSTOWN      MOCLDY    39  23  52 W9        30.18R
ALTOONA        CLOUDY    36  25  64 CALM      30.21R
STATE COLLEGE  PTCLDY    31  28  86 CALM      30.20F
WILLIAMSPORT   CLOUDY    31  26  82 CALM      30.23S
SELINSGROVE    MOCLDY    29  27  92 CALM      30.24R
FT INDIANTOWN  CLOUDY    28  26  94 CALM      30.24S
CAPITAL CITY   CLEAR     30  27  88 SW3       30.24S
HARRISBURG     MOCLDY    29  27  92 N3        30.24S
YORK           CLEAR     26  23  88 CALM      30.24R
$$

PAZ038>040-043-044-047-048-054-055-060>062-067>071-270900-
EASTERN PENNSYLVANIA

CITY           SKY/WX    TMP DP  RH WIND       PRES   REMARKS
SCRANTON       CLOUDY    34  29  82 S7        30.19F
MOUNT POCONO   MOCLDY    35  27  72 NW6       30.16S
ALLENTOWN      PTCLDY    30  25  81 CALM      30.22S
QUAKERTOWN*    NOT AVBL
READING        PTCLDY    30  27  88 CALM      30.23R
LANCASTER      PTCLDY    27  25  92 CALM      30.24S
COATESVILLE    FAIR      34  30  86 W5        30.23S
POTTSTOWN      PTCLDY    27  25  92 CALM      30.24S
BLUE BELL      PTCLDY    32  32 100 CALM      30.23S
DOYLESTOWN     PTCLDY    34  30  85 CALM      30.22S
WILLOW GROVE   NOT AVBL
NORTH PHILA    CLEAR     37  29  72 CALM      30.25R
PHILADELPHIA   PTCLDY    34  30  85 SW5       30.26R
$$



USA.gov is the U.S. government's official web portal to all federal, state and local government web resources and services.